ONEWEB-0011 (44062 NORAD) Tracking and Keplerian Element Data

This shows tracking and keplerian element data for the satellite.

Feedback or suggestion? Click here.




ElementValue
Catalog44062
NameONEWEB-0011
Epoch Orbit389
Epoch Day87.4382899
Epoch Year2019
RAAN64.1504
Inclination87.7725
Eccentricity0.0013543
Argument of Perigee159.9059
Mean Anonmoly200.2638
Mean Motion13.70839618
Decay Rate6.5E-07
L11 44062U 19010F 19087.43828990 .00000065 00000-0 55615-4 0 9992
L22 44062 87.7725 64.1504 0013543 159.9059 200.2638 13.70839618 3895

Live tracking and technical data element details for ONEWEB-0011 (NORAD 44062). ONEWEB-0011 can be tracked NOW for your location showing map with azimuth and elevation plus other details from your city location.

Track the satellite on the map from your city or location and see movement details for azimuth, elevation, latitude, longitude, range, height, and movement on the map or in text.







IsCatalogInMostPopularTable: catalog: 44062, numindb: 532
Update: records affected: 1



GetName: 44062 ONEWEB-0011

Hit Count: updated at: Fri, 19 Jul 2019 07:57:21 GMT